Regional Weather Roundup
Issued by NWS

Home | Current Version | Previous Version | Text Only | Print | Product List | Glossary Off
Versions: 1 2 3 4 5 6 7 8 9 10 11 12 13 14 15 16 17 18 19 20 21 22 23 24 25 26 27 28 29 30 31 32 33 34 35 36 37 38 39 40 41 42 43 44 45 46 47 48 49 50

000
ASUS43 KOAX 221002
RWRNE

WEATHER ROUNDUP FOR NEBRASKA
NATIONAL WEATHER SERVICE OMAHA NE
500 AM CDT MON MAY 22 2017

NOTES: SATELLITE DATA IS BEING USED TO AUGMENT CLOUD COVER ABOVE
       12000 FEET.
       "FAIR" INDICATES FEW OR NO CLOUDS BELOW 12,000 FEET WITH NO
       SIGNIFICANT WEATHER AND/OR OBSTRUCTIONS TO VISIBILITY.

  * THESE STATIONS DO NOT REPORT WEATHER SUCH AS RAIN...SNOW OR FOG.

NEZ001>004-019>022-054>056-221100-
NEBRASKA PANHANDLE

CITY           SKY/WX    TMP DP  RH WIND       PRES   REMARKS
SCOTTSBLUFF    CLEAR     39  32  76 NW6       30.13F WCI  35
ALLIANCE       CLEAR     38  36  92 W9        30.10F WCI  31
CHADRON        CLEAR     40  37  89 SW7       30.07F
GORDON         FAIR      43  38  83 W7        30.05F
KIMBALL        CLEAR     39  37  91 W3        30.16F
SIDNEY         CLEAR     39  37  92 W7        30.14F WCI  34
$$

NEZ057>060-069>072-079>082-221100-
SOUTHWEST NEBRASKA

CITY           SKY/WX    TMP DP  RH WIND       PRES   REMARKS
NORTH PLATTE   CLOUDY    40  39  97 NW6       30.07F
IMPERIAL       CLOUDY    49  44  83 W8        30.12S
LEXINGTON      CLOUDY    50  46  87 W7        30.07F
MCCOOK         CLOUDY    52  50  93 W6        30.09F
OGALLALA       CLOUDY    42  40  93 CALM      30.11S
$$

NEZ005>010-023>029-035>040-094-221100-
NORTH CENTRAL NEBRASKA

CITY           SKY/WX    TMP DP  RH WIND       PRES   REMARKS
VALENTINE      CLEAR     43  39  86 W8        30.02S
AINSWORTH      CLEAR     45  42  91 W10       30.01F
BROKEN BOW     CLOUDY    49  43  80 W10       30.04F
O`NEILL        CLEAR     49  43  79 W9        29.98F
ORD            CLEAR     44  41  89 SW7       30.02S
THEDFORD       CLEAR     43  41  91 W6        30.05F
$$

NEZ041-046>049-061>064-073>077-083>087-221100-
SOUTH CENTRAL NEBRASKA

CITY           SKY/WX    TMP DP  RH WIND       PRES   REMARKS
GRAND ISLAND   MOCLDY    56  48  74 W13       30.03F
AURORA         CLOUDY    54  48  81 W7        30.02S
HASTINGS       MOCLDY    55  48  77 W9        30.04F
HEBRON         LGT RAIN  57  53  84 SW9       30.03F
HOLDREGE       CLOUDY    53  47  80 W12       30.07S
KEARNEY *      PTCLDY    55  45  67 W9        30.05F
YORK           CLOUDY    55  48  76 W10       30.02S
$$

NEZ011>018-030>034-042>045-221100-
NORTHEAST NEBRASKA

CITY           SKY/WX    TMP DP  RH WIND       PRES   REMARKS
NORFOLK        CLEAR     49  42  77 SW8       29.96S
ALBION         CLEAR     50  44  78 NW5       30.00F
BLAIR          PTCLDY    53  45  74 S12       29.96F
FREMONT        CLEAR     55  45  71 SW12      29.96F
TEKAMAH        CLOUDY    53  44  71 W5        29.96F
WAYNE          CLEAR     51  46  82 CALM      29.94F
$$

NEZ050>053-065>068-078-088>093-221100-
SOUTHEAST NEBRASKA

CITY           SKY/WX    TMP DP  RH WIND       PRES   REMARKS
LINCOLN        PTCLDY    57  50  77 SW12      30.02S
OMAHA EPPLEY   PTCLDY    51  44  77 SE12      29.98F
BEATRICE       LGT RAIN  58  53  83 SW14      30.04S
FALLS CITY     PTCLDY    54  46  74 S10       30.02F
NEBRASKA CITY  CLOUDY    54  41  62 SW12      30.01F
PLATTSMOUTH    PTCLDY    53  43  68 S12       30.00F
$$

NEZ044-045-051>053-067-221100-
OMAHA AREA

CITY           SKY/WX    TMP DP  RH WIND       PRES   REMARKS
OMAHA EPPLEY   PTCLDY    51  44  77 SE12      29.98F
BLAIR          PTCLDY    53  45  74 S12       29.96F
FREMONT        CLEAR     55  45  71 SW12      29.96F
MILLARD        PTCLDY    56  46  69 CALM      29.98F
OFFUTT AFB     PTCLDY    52  43  73 VRB5      30.00F
PLATTSMOUTH    PTCLDY    53  43  68 S12       30.00F
WAHOO          FAIR      52  46  79 SW9       29.97F
$$




USA.gov is the U.S. government's official web portal to all federal, state and local government web resources and services.